User: anonymous   Login
Location: Mentone
(34.5413°N, 85.5351°W)
Time: 03:53:44
(UTC-06:00)
Language:

ATLAS 5 CENTAUR R/B - Orbit

View from above orbital plane
View from above orbital plane
View from above satellite
View from above satellite

Ground track
Ground track

The orbit data is extracted from the following two-line orbital elements,

1 31702U 07027B   17053.19574770 0.00000000  00000-0  00000-0 0    08
2 31702  63.3692 197.9535 0256315   2.5893 357.4107 14.18542058    07
Epoch (UTC): 22 February 2017 04:41:52
Eccentricity: 0.0256315
inclination: 63.3692°
perigee height: 645 km
apogee height: 1015 km
right ascension of ascending node: 197.9535°
argument of perigee: 2.5893°
revolutions per day: 14.18542058
mean anomaly at epoch: 357.4107°
orbit number at epoch: 0

The dashed part of the orbit path shows where the satellite is in the earth's shadow,  

DLR